,,PA_Meas_PMT16A,,PR_Meas_QMR101_102,,RH_Meas_QMH101,,SR_Meas_QMS101,,TA_Meas_QMH101,,GenWind,,GenWind,
time,status,PA,status,PR,status,RH,status,SR,status,TA,status,DirAvg,status,SpdAvg,
2011-04-19, 00:00:04,VALID,917.502,VALID,0,VALID,90.711,VALID,0,VALID,18.6095,VALID,36,VALID,0.255078,
2011-04-19, 00:01:04,VALID,917.525,VALID,0,VALID,91.2828,VALID,0.107441,VALID,18.6095,VALID,36,VALID,0.346094,
2011-04-19, 00:02:04,VALID,917.514,VALID,0,VALID,92.129,VALID,0,VALID,18.6513,VALID,36,VALID,0.185156,
2011-04-19, 00:03:04,VALID,917.559,VALID,0,VALID,92.4644,VALID,0.107441,VALID,18.4884,VALID,36,VALID,0.428906,
2011-04-19, 00:04:04,VALID,917.555,VALID,0,VALID,92.6016,VALID,0.107441,VALID,18.4745,VALID,36,VALID,0.476172,
2011-04-19, 00:05:04,VALID,917.549,VALID,0,VALID,92.8532,VALID,0.107441,VALID,18.4355,VALID,36,VALID,0.50625,
2011-04-19, 00:06:04,VALID,917.573,VALID,0,VALID,92.9523,VALID,0.107441,VALID,18.377,VALID,36,VALID,0.642578,
2011-04-19, 00:07:04,VALID,917.601,VALID,0,VALID,93.1505,VALID,0.107441,VALID,18.2977,VALID,36,VALID,0.557031,
2011-04-19, 00:08:04,VALID,917.598,VALID,0,VALID,92.8456,VALID,0.107441,VALID,18.2392,VALID,36,VALID,0.495313,
2011-04-19, 00:09:04,VALID,917.608,VALID,0,VALID,92.5559,VALID,0,VALID,18.2601,VALID,36,VALID,0.595703,
2011-04-19, 00:10:04,VALID,917.589,VALID,0,VALID,92.2814,VALID,0,VALID,18.2183,VALID,36,VALID,0.623047,
2011-04-19, 00:11:04,VALID,917.594,VALID,0,VALID,91.7326,VALID,0.107441,VALID,18.2796,VALID,36,VALID,0.564062,
2011-04-19, 00:12:04,VALID,917.559,VALID,0,VALID,91.603,VALID,0.107441,VALID,18.3185,VALID,37,VALID,0.74375,
2011-04-19, 00:13:04,VALID,917.556,VALID,0,VALID,91.8774,VALID,0.107441,VALID,18.338,VALID,36,VALID,0.841797,
2011-04-19, 00:14:04,VALID,917.533,VALID,0,VALID,91.4352,VALID,0.107441,VALID,18.3575,VALID,36,VALID,1.03164,
2011-04-19, 00:15:04,VALID,917.487,VALID,0,VALID,90.307,VALID,0.107441,VALID,18.3965,VALID,36,VALID,0.955859,
2011-04-19, 00:16:04,VALID,917.5,VALID,0,VALID,90.7644,VALID,0.107441,VALID,18.4759,VALID,36,VALID,0.978906,
2011-04-19, 00:17:04,VALID,917.47,VALID,0,VALID,90.8635,VALID,0,VALID,18.455,VALID,36,VALID,1.16641,
2011-04-19, 00:18:04,VALID,917.491,VALID,0,VALID,89.6514,VALID,0.107441,VALID,18.494,VALID,36,VALID,1.24648,
2011-04-19, 00:19:04,VALID,917.474,VALID,0,VALID,89.7505,VALID,0.107441,VALID,18.5121,VALID,36,VALID,0.542969,
2011-04-19, 00:20:04,VALID,917.479,VALID,0,VALID,89.781,VALID,0,VALID,18.5525,VALID,36,VALID,0.549219,
2011-04-19, 00:21:04,VALID,917.476,VALID,0,VALID,90.7415,VALID,0.107441,VALID,18.5511,VALID,36,VALID,1.35273,
2011-04-19, 00:22:04,VALID,917.461,VALID,0,VALID,90.8559,VALID,0.107441,VALID,18.5316,VALID,36,VALID,1.62812,
2011-04-19, 00:23:04,VALID,917.447,VALID,0,VALID,90.246,VALID,0.107441,VALID,18.494,VALID,36,VALID,1.46328,
2011-04-19, 00:24:04,VALID,917.45,VALID,0,VALID,90.1926,VALID,0,VALID,18.533,VALID,36,VALID,0.352734,
2011-04-19, 00:25:04,VALID,917.425,VALID,0,VALID,89.8191,VALID,0.107441,VALID,18.5121,VALID,36,VALID,0.407422,
2011-04-19, 00:26:04,VALID,917.432,VALID,0,VALID,88.9271,VALID,0.107441,VALID,18.5525,VALID,36,VALID,0.625781,
2011-04-19, 00:27:04,VALID,917.412,VALID,0,VALID,89.2702,VALID,0,VALID,18.5914,VALID,36,VALID,0.767578,
2011-04-19, 00:28:04,VALID,917.381,VALID,0,VALID,89.0263,VALID,0,VALID,18.6109,VALID,37,VALID,1.25078,
2011-04-19, 00:29:04,VALID,917.399,VALID,0,VALID,89.8115,VALID,0.107441,VALID,18.6304,VALID,37,VALID,1.06406,
2011-04-19, 00:30:04,VALID,917.381,VALID,0,VALID,90.2003,VALID,0.107441,VALID,18.5316,VALID,37,VALID,0.351953,
2011-04-19, 00:31:04,VALID,917.328,VALID,0,VALID,89.9258,VALID,0.107441,VALID,18.4926,VALID,37,VALID,0.430469,
2011-04-19, 00:32:04,VALID,917.335,VALID,0,VALID,90.0249,VALID,0,VALID,18.4522,VALID,37,VALID,0.345313,
2011-04-19, 00:33:04,VALID,917.297,VALID,0,VALID,91.0998,VALID,0.107441,VALID,18.5149,VALID,37,VALID,0,
2011-04-19, 00:34:04,VALID,917.287,VALID,0,VALID,90.4823,VALID,0.107441,VALID,18.3951,VALID,37,VALID,0.151953,
2011-04-19, 00:35:04,VALID,917.234,VALID,0,VALID,90.0935,VALID,0,VALID,18.3533,VALID,37,VALID,0.351172,
2011-04-19, 00:36:04,VALID,917.229,VALID,0,VALID,90.2003,VALID,0.107441,VALID,18.4132,VALID,37,VALID,0.377344,
2011-04-19, 00:37:04,VALID,917.209,VALID,0,VALID,90.833,VALID,0,VALID,18.4536,VALID,37,VALID,0.180469,
2011-04-19, 00:38:04,VALID,917.175,VALID,0,VALID,91.4505,VALID,0,VALID,18.455,VALID,37,VALID,0.183594,
2011-04-19, 00:39:04,VALID,917.136,VALID,0,VALID,90.8406,VALID,0,VALID,18.4355,VALID,37,VALID,0.500781,
2011-04-19, 00:40:04,VALID,917.144,VALID,0,VALID,90.9397,VALID,0,VALID,18.3561,VALID,37,VALID,0.416016,
2011-04-19, 00:41:04,VALID,917.129,VALID,0,VALID,89.2778,VALID,0,VALID,18.3575,VALID,37,VALID,0.389062,
2011-04-19, 00:42:04,VALID,917.125,VALID,0,VALID,88.2258,VALID,0,VALID,18.3756,VALID,37,VALID,0.577344,
2011-04-19, 00:43:04,VALID,917.089,VALID,0,VALID,88.0886,VALID,0,VALID,18.533,VALID,37,VALID,0.883594,
2011-04-19, 00:44:04,VALID,917.071,VALID,0,VALID,86.6554,VALID,0,VALID,18.5914,VALID,37,VALID,0.782031,
2011-04-19, 00:45:04,VALID,917.041,VALID,0,VALID,85.6338,VALID,0,VALID,18.6889,VALID,37,VALID,0.773438,
2011-04-19, 00:46:04,VALID,917.013,VALID,0,VALID,85.1154,VALID,0,VALID,18.8254,VALID,37,VALID,0.664844,
2011-04-19, 00:47:04,VALID,917.013,VALID,0,VALID,86.7468,VALID,0.107441,VALID,18.9619,VALID,37,VALID,0.458984,
2011-04-19, 00:48:04,VALID,916.974,VALID,0,VALID,87.0823,VALID,0,VALID,18.9034,VALID,37,VALID,0.681641,
2011-04-19, 00:49:04,VALID,916.931,VALID,0,VALID,85.8702,VALID,0,VALID,18.8268,VALID,37,VALID,0.862109,
2011-04-19, 00:50:04,VALID,916.942,VALID,0,VALID,85.5881,VALID,0,VALID,18.8449,VALID,37,VALID,0.873828,
2011-04-19, 00:51:04,VALID,916.935,VALID,0,VALID,85.4128,VALID,0,VALID,18.8644,VALID,37,VALID,0.737891,
2011-04-19, 00:52:04,VALID,916.916,VALID,0,VALID,85.5119,VALID,0,VALID,18.9229,VALID,37,VALID,0.502734,
2011-04-19, 00:53:04,VALID,916.927,VALID,0,VALID,85.489,VALID,0.107441,VALID,18.9034,VALID,37,VALID,0.642187,
2011-04-19, 00:54:04,VALID,916.871,VALID,0,VALID,86.48,VALID,0,VALID,18.8839,VALID,37,VALID,0.651953,
2011-04-19, 00:55:04,VALID,916.876,VALID,0,VALID,88.241,VALID,0,VALID,18.8268,VALID,37,VALID,1.19375,
2011-04-19, 00:56:04,VALID,916.881,VALID,0,VALID,87.3796,VALID,0.107441,VALID,18.7098,VALID,37,VALID,1.11016,
2011-04-19, 00:57:04,VALID,916.855,VALID,0,VALID,88.0733,VALID,0,VALID,18.668,VALID,37,VALID,0.747656,
2011-04-19, 00:58:04,VALID,916.859,VALID,0,VALID,87.8446,VALID,0,VALID,18.6081,VALID,37,VALID,0.538281,
2011-04-19, 00:59:04,VALID,916.857,VALID,0,VALID,87.8904,VALID,0,VALID,18.6109,VALID,37,VALID,0.320313,
2011-04-19, 01:00:04,VALID,916.822,VALID,0,VALID,88.1801,VALID,0,VALID,18.5914,VALID,37,VALID,0.311328,
2011-04-19, 01:01:04,VALID,916.822,VALID,0,VALID,89.2321,VALID,0,VALID,18.5525,VALID,37,VALID,0.328125,
2011-04-19, 01:02:04,VALID,916.821,VALID,0,VALID,89.5218,VALID,0,VALID,18.533,VALID,37,VALID,0.0125,
2011-04-19, 01:03:04,VALID,916.798,VALID,0,VALID,88.8357,VALID,0,VALID,18.4745,VALID,37,VALID,0.321484,
2011-04-19, 01:04:04,VALID,916.828,VALID,0,VALID,88.424,VALID,0,VALID,18.4745,VALID,37,VALID,0.2875,
2011-04-19, 01:05:04,VALID,916.842,VALID,0,VALID,88.4621,VALID,0,VALID,18.5595,VALID,37,VALID,0.195703,
2011-04-19, 01:06:04,VALID,916.818,VALID,0,VALID,88.8738,VALID,0.107441,VALID,18.455,VALID,37,VALID,0,
2011-04-19, 01:07:04,VALID,916.838,VALID,0,VALID,89.1559,VALID,0,VALID,18.4369,VALID,37,VALID,0.2,
2011-04-19, 01:08:04,VALID,916.796,VALID,0,VALID,88.4697,VALID,0,VALID,18.3965,VALID,37,VALID,0.514453,
2011-04-19, 01:09:04,VALID,916.767,VALID,0,VALID,87.5244,VALID,0,VALID,18.416,VALID,37,VALID,0.386719,
2011-04-19, 01:10:04,VALID,916.769,VALID,0,VALID,86.8307,VALID,0,VALID,18.416,VALID,37,VALID,0.442578,
2011-04-19, 01:11:04,VALID,916.766,VALID,0,VALID,87.2652,VALID,0.107441,VALID,18.4745,VALID,37,VALID,0.377734,
2011-04-19, 01:12:04,VALID,916.726,VALID,0,VALID,87.189,VALID,0.107441,VALID,18.5135,VALID,37,VALID,0.311719,
2011-04-19, 01:13:04,VALID,916.735,VALID,0,VALID,88.0123,VALID,0,VALID,18.4522,VALID,37,VALID,0,
2011-04-19, 01:14:04,VALID,916.697,VALID,0,VALID,86.8688,VALID,0,VALID,18.4731,VALID,37,VALID,0,
2011-04-19, 01:15:04,VALID,916.683,VALID,0,VALID,87.5244,VALID,0,VALID,18.5121,VALID,37,VALID,0,
2011-04-19, 01:16:04,VALID,916.713,VALID,0,VALID,88.5155,VALID,0,VALID,18.5705,VALID,37,VALID,0.387891,
2011-04-19, 01:17:04,VALID,916.689,VALID,0,VALID,89.7047,VALID,0,VALID,18.5107,VALID,37,VALID,0.528516,
2011-04-19, 01:18:04,VALID,916.667,VALID,0,VALID,89.5218,VALID,0,VALID,18.5135,VALID,37,VALID,0.609766,
2011-04-19, 01:19:04,VALID,916.614,VALID,0,VALID,87.9513,VALID,0,VALID,18.4731,VALID,37,VALID,0.503906,
2011-04-19, 01:20:04,VALID,916.61,VALID,0,VALID,87.4025,VALID,0,VALID,18.4954,VALID,37,VALID,0.34375,
2011-04-19, 01:21:04,VALID,916.578,VALID,0,VALID,87.6388,VALID,0,VALID,18.4745,VALID,37,VALID,0.260156,
2011-04-19, 01:22:04,VALID,916.543,VALID,0,VALID,87.128,VALID,0.107441,VALID,18.4355,VALID,37,VALID,0.459766,
2011-04-19, 01:23:04,VALID,916.519,VALID,0,VALID,88.4011,VALID,0,VALID,18.4355,VALID,37,VALID,0.442969,
2011-04-19, 01:24:04,VALID,916.538,VALID,0,VALID,87.6007,VALID,0.107441,VALID,18.416,VALID,37,VALID,0.505078,
2011-04-19, 01:25:04,VALID,916.535,VALID,0,VALID,87.8294,VALID,0,VALID,18.4355,VALID,37,VALID,0.535937,
2011-04-19, 01:26:04,VALID,916.532,VALID,0,VALID,87.6693,VALID,0,VALID,18.4355,VALID,37,VALID,0.497656,
2011-04-19, 01:27:04,VALID,916.51,VALID,0,VALID,88.8128,VALID,0,VALID,18.3742,VALID,37,VALID,0.425781,
2011-04-19, 01:28:04,VALID,916.502,VALID,0,VALID,89.7886,VALID,0.107441,VALID,18.3965,VALID,37,VALID,0.282422,
2011-04-19, 01:29:04,VALID,916.515,VALID,0,VALID,88.9805,VALID,0.107441,VALID,18.338,VALID,37,VALID,0.224609,
2011-04-19, 01:30:04,VALID,916.482,VALID,0,VALID,88.7975,VALID,0,VALID,18.3185,VALID,37,VALID,0.676172,
2011-04-19, 01:31:04,VALID,916.469,VALID,0,VALID,89.598,VALID,0,VALID,18.3979,VALID,37,VALID,0.428125,
2011-04-19, 01:32:04,VALID,916.469,VALID,0,VALID,89.0796,VALID,0,VALID,18.3144,VALID,37,VALID,0.367188,
2011-04-19, 01:33:04,VALID,916.451,VALID,0,VALID,89.5675,VALID,0,VALID,18.338,VALID,37,VALID,0.283203,
2011-04-19, 01:34:04,VALID,916.433,VALID,0,VALID,89.3236,VALID,0,VALID,18.338,VALID,37,VALID,0.120703,
2011-04-19, 01:35:04,VALID,916.435,VALID,0,VALID,88.7061,VALID,0,VALID,18.3575,VALID,37,VALID,0.435156,
2011-04-19, 01:36:04,VALID,916.397,VALID,0,VALID,88.1572,VALID,0,VALID,18.3965,VALID,37,VALID,0.526172,
2011-04-19, 01:37:04,VALID,916.386,VALID,0,VALID,87.433,VALID,0,VALID,18.4355,VALID,37,VALID,0.572656,
2011-04-19, 01:38:04,VALID,916.355,VALID,0,VALID,87.4863,VALID,0,VALID,18.533,VALID,37,VALID,0.728125,
2011-04-19, 01:39:04,VALID,916.365,VALID,0,VALID,87.5092,VALID,0,VALID,18.533,VALID,37,VALID,1.08125,
2011-04-19, 01:40:04,VALID,916.349,VALID,0,VALID,87.7455,VALID,0,VALID,18.5525,VALID,37,VALID,1.17109,
2011-04-19, 01:41:04,VALID,916.396,VALID,0,VALID,87.3034,VALID,0,VALID,18.5525,VALID,37,VALID,1.09453,
2011-04-19, 01:42:04,VALID,916.364,VALID,0,VALID,87.1814,VALID,0,VALID,18.5525,VALID,37,VALID,1.13555,
2011-04-19, 01:43:04,VALID,916.341,VALID,0,VALID,87.2729,VALID,0,VALID,18.5525,VALID,37,VALID,0.776953,
2011-04-19, 01:44:04,VALID,916.345,VALID,0,VALID,87.4863,VALID,0,VALID,18.572,VALID,37,VALID,0.757422,
2011-04-19, 01:45:04,VALID,916.315,VALID,0,VALID,87.5321,VALID,0,VALID,18.5929,VALID,37,VALID,0.696484,
2011-04-19, 01:46:04,VALID,916.323,VALID,0,VALID,87.3872,VALID,0,VALID,18.6319,VALID,37,VALID,0.623438,
2011-04-19, 01:47:04,VALID,916.317,VALID,0,VALID,87.2957,VALID,0,VALID,18.6694,VALID,37,VALID,0.746875,
2011-04-19, 01:48:04,VALID,916.276,VALID,0,VALID,87.4787,VALID,0,VALID,18.6889,VALID,37,VALID,0.414844,
2011-04-19, 01:49:04,VALID,916.27,VALID,0,VALID,86.8688,VALID,0,VALID,18.7084,VALID,37,VALID,0.575781,
2011-04-19, 01:50:04,VALID,916.247,VALID,0,VALID,87.3415,VALID,0.107441,VALID,18.7474,VALID,37,VALID,0.798437,
2011-04-19, 01:51:04,VALID,916.206,VALID,0,VALID,87.6235,VALID,0,VALID,18.7474,VALID,37,VALID,0.478906,
2011-04-19, 01:52:04,VALID,916.184,VALID,0,VALID,88.1801,VALID,0,VALID,18.7279,VALID,37,VALID,0.426172,
2011-04-19, 01:53:04,VALID,916.192,VALID,0,VALID,86.9603,VALID,0,VALID,18.6694,VALID,37,VALID,1.01953,
2011-04-19, 01:54:04,VALID,916.169,VALID,0,VALID,87.2195,VALID,0,VALID,18.6694,VALID,37,VALID,0.470313,
2011-04-19, 01:55:04,VALID,916.216,VALID,0,VALID,87.2424,VALID,0,VALID,18.7084,VALID,37,VALID,0.444531,
2011-04-19, 01:56:04,VALID,916.152,VALID,0,VALID,87.189,VALID,0,VALID,18.7293,VALID,37,VALID,0.474219,
2011-04-19, 01:57:04,VALID,916.138,VALID,0,VALID,87.4787,VALID,0.107441,VALID,18.7084,VALID,37,VALID,0.384766,
2011-04-19, 01:58:04,VALID,916.13,VALID,0,VALID,87.4863,VALID,0,VALID,18.6708,VALID,37,VALID,0.348828,
2011-04-19, 01:59:04,VALID,916.137,VALID,0,VALID,87.3872,VALID,0,VALID,18.6095,VALID,37,VALID,0.348437,
2011-04-19, 02:00:04,VALID,916.093,VALID,0,VALID,87.189,VALID,0,VALID,18.6499,VALID,37,VALID,0.371875,
2011-04-19, 02:01:04,VALID,916.092,VALID,0,VALID,86.4572,VALID,0,VALID,18.6889,VALID,37,VALID,0.495313,
2011-04-19, 02:02:04,VALID,916.096,VALID,0,VALID,87.2195,VALID,0,VALID,18.7279,VALID,37,VALID,0.610937,
2011-04-19, 02:03:04,VALID,916.09,VALID,0,VALID,87.2195,VALID,0,VALID,18.7474,VALID,37,VALID,0.624219,
2011-04-19, 02:04:04,VALID,916.088,VALID,0,VALID,87.2576,VALID,0,VALID,18.7084,VALID,37,VALID,0.399609,
2011-04-19, 02:05:04,VALID,916.087,VALID,0,VALID,87.5168,VALID,0,VALID,18.6889,VALID,37,VALID,0.450391,
2011-04-19, 02:06:04,VALID,916.075,VALID,0,VALID,87.4863,VALID,0,VALID,18.6694,VALID,37,VALID,0.423047,
2011-04-19, 02:07:04,VALID,916.077,VALID,0,VALID,87.5397,VALID,0,VALID,18.6708,VALID,37,VALID,0.342187,
2011-04-19, 02:08:04,VALID,916.076,VALID,0,VALID,87.9285,VALID,0,VALID,18.6499,VALID,37,VALID,0.344141,
2011-04-19, 02:09:04,VALID,916.07,VALID,0,VALID,88.3935,VALID,0,VALID,18.6304,VALID,37,VALID,0.366797,
2011-04-19, 02:10:04,VALID,916.061,VALID,0,VALID,88.4088,VALID,0.107441,VALID,18.5914,VALID,37,VALID,0.308984,
2011-04-19, 02:11:04,VALID,916.03,VALID,0,VALID,88.607,VALID,0,VALID,18.533,VALID,37,VALID,0.320313,
2011-04-19, 02:12:04,VALID,916.036,VALID,0,VALID,88.4926,VALID,0,VALID,18.494,VALID,37,VALID,0.536328,
2011-04-19, 02:13:04,VALID,916.009,VALID,0,VALID,88.4621,VALID,0,VALID,18.5776,VALID,37,VALID,0.617969,
2011-04-19, 02:14:04,VALID,915.986,VALID,0,VALID,88.7823,VALID,0,VALID,18.494,VALID,37,VALID,0.721484,
2011-04-19, 02:15:04,VALID,915.99,VALID,0,VALID,89.0644,VALID,0,VALID,18.4745,VALID,37,VALID,0.7625,
2011-04-19, 02:16:04,VALID,915.977,VALID,0,VALID,89.7047,VALID,0,VALID,18.4355,VALID,37,VALID,0.778125,
2011-04-19, 02:17:04,VALID,915.965,VALID,0,VALID,89.659,VALID,0,VALID,18.3575,VALID,37,VALID,0.912891,
2011-04-19, 02:18:04,VALID,915.957,VALID,0,VALID,89.3464,VALID,0,VALID,18.338,VALID,37,VALID,0.769922,
2011-04-19, 02:19:04,VALID,915.93,VALID,0,VALID,89.3464,VALID,0,VALID,18.3575,VALID,37,VALID,0.722266,
2011-04-19, 02:20:04,VALID,915.908,VALID,0,VALID,89.2702,VALID,0,VALID,18.3575,VALID,37,VALID,0.594141,
2011-04-19, 02:21:04,VALID,915.888,VALID,0,VALID,88.9043,VALID,0,VALID,18.338,VALID,37,VALID,0.494922,
2011-04-19, 02:22:04,VALID,915.856,VALID,0,VALID,88.4011,VALID,0,VALID,18.3575,VALID,37,VALID,0.550391,
2011-04-19, 02:23:04,VALID,915.841,VALID,0,VALID,88.0581,VALID,0,VALID,18.377,VALID,37,VALID,0.524219,
2011-04-19, 02:24:04,VALID,915.83,VALID,0,VALID,87.7303,VALID,0,VALID,18.4355,VALID,37,VALID,0.535547,
2011-04-19, 02:25:04,VALID,915.837,VALID,0,VALID,87.4787,VALID,0,VALID,18.5135,VALID,37,VALID,0.603125,
2011-04-19, 02:26:04,VALID,915.808,VALID,0,VALID,87.5549,VALID,0,VALID,18.572,VALID,37,VALID,0.433594,
2011-04-19, 02:27:04,VALID,915.822,VALID,0,VALID,87.5702,VALID,0,VALID,18.5511,VALID,37,VALID,0.539063,
2011-04-19, 02:28:04,VALID,915.826,VALID,0,VALID,86.9527,VALID,0,VALID,18.5914,VALID,37,VALID,0.543359,
2011-04-19, 02:29:04,VALID,915.835,VALID,0,VALID,87.6693,VALID,0,VALID,18.5914,VALID,37,VALID,0.387109,
2011-04-19, 02:30:04,VALID,915.843,VALID,0,VALID,87.9666,VALID,0,VALID,18.572,VALID,37,VALID,0.374609,
2011-04-19, 02:31:04,VALID,915.826,VALID,0,VALID,87.9437,VALID,0,VALID,18.5525,VALID,37,VALID,0.428906,
2011-04-19, 02:32:04,VALID,915.823,VALID,0,VALID,87.8599,VALID,0,VALID,18.533,VALID,37,VALID,0.267969,
2011-04-19, 02:33:04,VALID,915.801,VALID,0,VALID,87.7608,VALID,0,VALID,18.5135,VALID,37,VALID,0.317187,
2011-04-19, 02:34:04,VALID,915.806,VALID,0,VALID,87.9666,VALID,0.107441,VALID,18.5135,VALID,37,VALID,0.269531,
2011-04-19, 02:35:04,VALID,915.779,VALID,0,VALID,87.3186,VALID,0,VALID,18.494,VALID,37,VALID,0.367188,
2011-04-19, 02:36:04,VALID,915.744,VALID,0,VALID,87.959,VALID,0,VALID,18.494,VALID,37,VALID,0.319531,
2011-04-19, 02:37:04,VALID,915.719,VALID,0,VALID,87.9437,VALID,0.107441,VALID,18.494,VALID,37,VALID,0.399609,
2011-04-19, 02:38:04,VALID,915.735,VALID,0,VALID,87.7913,VALID,0,VALID,18.4745,VALID,37,VALID,0.376953,
2011-04-19, 02:39:04,VALID,915.708,VALID,0,VALID,87.6922,VALID,0.107441,VALID,18.4954,VALID,37,VALID,0.327344,
2011-04-19, 02:40:04,VALID,915.704,VALID,0,VALID,87.2576,VALID,0.107441,VALID,18.4731,VALID,37,VALID,0.316016,
2011-04-19, 02:41:04,VALID,915.664,VALID,0,VALID,86.9069,VALID,0,VALID,18.5135,VALID,37,VALID,0.282813,
2011-04-19, 02:42:04,VALID,915.671,VALID,0,VALID,86.2513,VALID,0,VALID,18.5135,VALID,37,VALID,0.341016,
2011-04-19, 02:43:04,VALID,915.659,VALID,0,VALID,86.4495,VALID,0.107441,VALID,18.572,VALID,37,VALID,0.270703,
2011-04-19, 02:44:04,VALID,915.662,VALID,0,VALID,86.541,VALID,0.107441,VALID,18.5914,VALID,37,VALID,0.330469,
2011-04-19, 02:45:04,VALID,915.65,VALID,0,VALID,87.3034,VALID,0,VALID,18.6109,VALID,37,VALID,0.230078,
2011-04-19, 02:46:04,VALID,915.644,VALID,0,VALID,87.5168,VALID,0,VALID,18.572,VALID,37,VALID,0.2625,
2011-04-19, 02:47:04,VALID,915.635,VALID,0,VALID,87.7379,VALID,0,VALID,18.5135,VALID,37,VALID,0.254297,
2011-04-19, 02:48:04,VALID,915.626,VALID,0,VALID,88.5231,VALID,0,VALID,18.494,VALID,37,VALID,0.299219,
2011-04-19, 02:49:04,VALID,915.598,VALID,0,VALID,88.4545,VALID,0,VALID,18.4355,VALID,37,VALID,0.514844,
2011-04-19, 02:50:04,VALID,915.565,VALID,0,VALID,88.8433,VALID,0.107441,VALID,18.3965,VALID,37,VALID,0.472656,
2011-04-19, 02:51:04,VALID,915.558,VALID,0,VALID,89.6437,VALID,0.107441,VALID,18.338,VALID,37,VALID,0.307031,
2011-04-19, 02:52:04,VALID,915.552,VALID,0,VALID,90.0935,VALID,0,VALID,18.2615,VALID,37,VALID,0.299219,
2011-04-19, 02:53:04,VALID,915.558,VALID,0,VALID,90.2612,VALID,0,VALID,18.164,VALID,37,VALID,0.370313,
2011-04-19, 02:54:04,VALID,915.519,VALID,0,VALID,90.2079,VALID,0,VALID,18.125,VALID,37,VALID,0.514844,
2011-04-19, 02:55:04,VALID,915.539,VALID,0,VALID,90.1545,VALID,0,VALID,18.0846,VALID,37,VALID,0.417188,
2011-04-19, 02:56:04,VALID,915.528,VALID,0,VALID,90.2994,VALID,0,VALID,18.1055,VALID,37,VALID,0.2375,
2011-04-19, 02:57:04,VALID,915.517,VALID,0,VALID,90.711,VALID,0,VALID,18.0443,VALID,37,VALID,0.276172,
2011-04-19, 02:58:04,VALID,915.509,VALID,0,VALID,90.4442,VALID,0,VALID,18.0665,VALID,37,VALID,0.640625,
2011-04-19, 02:59:04,VALID,915.51,VALID,0,VALID,90.6272,VALID,0,VALID,18.0665,VALID,37,VALID,0.577344,
2011-04-19, 03:00:04,VALID,915.494,VALID,0,VALID,90.8025,VALID,0,VALID,18.0457,VALID,37,VALID,0.441406,
2011-04-19, 03:01:04,VALID,915.534,VALID,0,VALID,90.894,VALID,0,VALID,18.0275,VALID,37,VALID,0.446875,
2011-04-19, 03:02:04,VALID,915.52,VALID,0,VALID,91.0693,VALID,0,VALID,18.0275,VALID,37,VALID,0.400781,
2011-04-19, 03:03:04,VALID,915.52,VALID,0,VALID,91.2675,VALID,0,VALID,17.9691,VALID,37,VALID,0.460156,
2011-04-19, 03:04:04,VALID,915.496,VALID,0,VALID,91.6258,VALID,0,VALID,17.9496,VALID,37,VALID,0.45,
2011-04-19, 03:05:04,VALID,915.5,VALID,0,VALID,91.7402,VALID,0,VALID,17.8911,VALID,37,VALID,0.552344,
2011-04-19, 03:06:04,VALID,915.488,VALID,0,VALID,91.4352,VALID,0,VALID,17.8521,VALID,37,VALID,0.725,
2011-04-19, 03:07:04,VALID,915.515,VALID,0,VALID,91.0998,VALID,0,VALID,17.8897,VALID,37,VALID,0.725,
2011-04-19, 03:08:04,VALID,915.519,VALID,0,VALID,90.7491,VALID,0,VALID,17.9092,VALID,37,VALID,0.640234,
2011-04-19, 03:09:04,VALID,915.544,VALID,0,VALID,90.5586,VALID,0,VALID,17.9482,VALID,37,VALID,0.688281,
2011-04-19, 03:10:04,VALID,915.518,VALID,0,VALID,90.2689,VALID,0,VALID,18.008,VALID,37,VALID,0.635938,
2011-04-19, 03:11:04,VALID,915.541,VALID,0,VALID,89.8725,VALID,0,VALID,18.086,VALID,37,VALID,0.330469,
2011-04-19, 03:12:04,VALID,915.539,VALID,0,VALID,89.7047,VALID,0,VALID,18.1236,VALID,37,VALID,0.475781,
2011-04-19, 03:13:04,VALID,915.504,VALID,0,VALID,89.7962,VALID,0,VALID,18.1626,VALID,37,VALID,0.405859,
2011-04-19, 03:14:04,VALID,915.536,VALID,0,VALID,90.0859,VALID,0,VALID,18.1626,VALID,37,VALID,0.418359,
2011-04-19, 03:15:04,VALID,915.527,VALID,0,VALID,89.6895,VALID,0,VALID,18.164,VALID,37,VALID,0.776563,
2011-04-19, 03:16:04,VALID,915.506,VALID,0,VALID,89.6361,VALID,0,VALID,18.1431,VALID,37,VALID,0.928125,
2011-04-19, 03:17:04,VALID,915.515,VALID,0,VALID,90.063,VALID,0,VALID,18.1041,VALID,37,VALID,0.839844,
2011-04-19, 03:18:05,VALID,915.478,VALID,0,VALID,90.0935,VALID,0.107441,VALID,18.0443,VALID,37,VALID,0.869141,
2011-04-19, 03:19:05,VALID,915.516,VALID,0,VALID,90.0783,VALID,0,VALID,18.0457,VALID,37,VALID,1.0418,
2011-04-19, 03:20:05,VALID,915.483,VALID,0,VALID,90.0173,VALID,0,VALID,18.0651,VALID,37,VALID,0.914844,
2011-04-19, 03:21:05,VALID,915.481,VALID,0,VALID,89.9639,VALID,0,VALID,18.0638,VALID,37,VALID,0.935938,
2011-04-19, 03:22:05,VALID,915.517,VALID,0,VALID,89.9182,VALID,0,VALID,18.1041,VALID,37,VALID,0.565234,
2011-04-19, 03:23:05,VALID,915.472,VALID,0,VALID,89.9258,VALID,0,VALID,18.1236,VALID,37,VALID,0.544141,
2011-04-19, 03:24:05,VALID,915.475,VALID,0,VALID,89.8267,VALID,0,VALID,18.1236,VALID,37,VALID,0.826172,
2011-04-19, 03:25:05,VALID,915.468,VALID,0,VALID,89.5142,VALID,0,VALID,18.1417,VALID,37,VALID,0.789844,
2011-04-19, 03:26:05,VALID,915.453,VALID,0,VALID,89.0339,VALID,0,VALID,18.2211,VALID,37,VALID,0.891016,
2011-04-19, 03:27:05,VALID,915.454,VALID,0,VALID,88.5993,VALID,0,VALID,18.2406,VALID,37,VALID,0.914453,
2011-04-19, 03:28:05,VALID,915.449,VALID,0,VALID,88.4469,VALID,0,VALID,18.299,VALID,37,VALID,0.685938,
2011-04-19, 03:29:05,VALID,915.44,VALID,0,VALID,87.8294,VALID,0,VALID,18.338,VALID,37,VALID,0.598047,
2011-04-19, 03:30:05,VALID,915.427,VALID,0,VALID,87.311,VALID,0,VALID,18.3965,VALID,37,VALID,0.43125,
2011-04-19, 03:31:05,VALID,915.452,VALID,0,VALID,86.9374,VALID,0,VALID,18.4745,VALID,37,VALID,0.438672,
2011-04-19, 03:32:05,VALID,915.429,VALID,0,VALID,86.8612,VALID,0,VALID,18.5525,VALID,37,VALID,0.555078,
2011-04-19, 03:33:05,VALID,915.433,VALID,0,VALID,86.6401,VALID,0,VALID,18.5525,VALID,37,VALID,0.496875,
2011-04-19, 03:34:05,VALID,915.426,VALID,0,VALID,87.0747,VALID,0,VALID,18.572,VALID,37,VALID,0.466797,
2011-04-19, 03:35:05,VALID,915.417,VALID,0,VALID,87.0594,VALID,0,VALID,18.5135,VALID,37,VALID,0.386328,
2011-04-19, 03:36:05,VALID,915.396,VALID,0,VALID,86.9146,VALID,0,VALID,18.5344,VALID,37,VALID,0.308594,
2011-04-19, 03:37:05,VALID,915.398,VALID,0,VALID,87.3339,VALID,0,VALID,18.494,VALID,37,VALID,0.325,
2011-04-19, 03:38:05,VALID,915.411,VALID,0,VALID,86.8383,VALID,0,VALID,18.494,VALID,37,VALID,0.303906,
2011-04-19, 03:39:05,VALID,915.394,VALID,0,VALID,86.7773,VALID,0,VALID,18.494,VALID,37,VALID,0.381641,
2011-04-19, 03:40:05,VALID,915.371,VALID,0,VALID,87.1128,VALID,0,VALID,18.5344,VALID,37,VALID,0.31875,
2011-04-19, 03:41:05,VALID,915.372,VALID,0,VALID,87.2729,VALID,0,VALID,18.4745,VALID,37,VALID,0.144141,
2011-04-19, 03:42:05,VALID,915.396,VALID,0,VALID,87.1433,VALID,0,VALID,18.455,VALID,37,VALID,0.198047,
2011-04-19, 03:43:05,VALID,915.41,VALID,0,VALID,87.4711,VALID,0,VALID,18.4355,VALID,37,VALID,0.117578,
2011-04-19, 03:44:05,VALID,915.381,VALID,0,VALID,87.715,VALID,0,VALID,18.3965,VALID,37,VALID,0.166406,